Flag Weather past 2 weeks in Asheville, North Carolina, U.S.A.

Now
56 °F

Sunny.


Feels Like: 54 °F
Forecast: 36 / 60 °F
Wind: 9 mph from North

Location: Asheville Regional Airport

Current Time: Oct 30, 2014 at 7:48:53 PM

Latest Report: Oct 30, 2014 at 6:54 PM


Visibility: 10 mi

Pressure: 29.98 "Hg

Humidity: 39%

Dew point: 31 °F

Location of AshevilleLocation

Historic Weather in Asheville — Graph

°F

Asheville temperature yesterday

Maximum temperature yesterday: 64 °F (at 1:54 PM)
Minimum temperature yesterday: 47 °F (at 11:54 PM)
Average temperature yesterday: 54 °F

Past Weeks' High & Low Weather Summary

 TemperatureHumidityPressure
High78 °F (Oct 28, 1:54 PM)97% (Oct 16, 6:01 AM)30.16 "Hg (Oct 16, 6:01 AM)
Low39 °F (Oct 20, 6:54 AM)23% (Oct 19, 3:54 PM)29.78 "Hg (Oct 16, 4:54 AM)
Average54 °F67%30.01 "Hg
* Reported Oct 15 6:54 PM — Oct 30 6:54 PM, Asheville, Weather by CustomWeather, © 2014

Note: Actual official high and low records may vary slightly from our data, if they occured in-between our weather recording intervals... More about our weather records

Advertising

Asheville weather history for previous 24 hours

 ConditionsComfort  
Time TempWeatherWind HumidityBarometerVisibility
6:54 PM
Oct 30
56 °FSunny.9 mph39%29.98 "Hg10 mi
5:54 PM60 °FSunny.6 mph36%29.96 "Hg10 mi
4:54 PM63 °FSunny.5 mph30%29.95 "Hg10 mi
3:54 PM63 °FSunny.5 mph29%29.95 "Hg10 mi
2:54 PM63 °FSunny.8 mph30%29.96 "Hg10 mi
1:54 PM60 °FSunny.10 mph32%29.99 "Hg10 mi
12:54 PM58 °FSunny.8 mph39%30.03 "Hg10 mi
11:54 AM56 °FSunny.7 mph46%30.06 "Hg10 mi
10:54 AM53 °FSunny.7 mph55%30.07 "Hg10 mi
9:54 AM48 °FSunny.8 mph68%30.09 "Hg10 mi
8:54 AM42 °FSunny.7 mph79%30.09 "Hg10 mi
7:54 AM41 °FClear.5 mph82%30.07 "Hg10 mi
6:54 AM42 °FClear.8 mph79%30.07 "Hg10 mi
5:54 AM44 °FClear.7 mph73%30.05 "Hg10 mi
4:54 AM44 °FClear.6 mph73%30.04 "Hg10 mi
3:54 AM45 °FClear.7 mph71%30.03 "Hg10 mi
2:54 AM45 °FClear.7 mph74%30.03 "Hg10 mi
1:54 AM47 °FClear.8 mph71%30.03 "Hg10 mi
12:54 AM47 °FClear.12 mph71%30.03 "Hg10 mi
11:54 PM
Oct 29
47 °FClear.12 mph71%30.04 "Hg10 mi
10:54 PM48 °FClear.7 mph66%30.05 "Hg10 mi
9:54 PM49 °FClear.7 mph61%30.05 "Hg10 mi
8:54 PM50 °FClear.6 mph57%30.05 "Hg10 mi
7:54 PM52 °FClear.14 mph45%30.03 "Hg10 mi
Weather by CustomWeather, © 2014

See weather overviewHow to use our weather pages